Location: Twillingate Astronomical Observatory
(49.6173°N, 54.7580°W)
Time: 14:26:46
(UTC-02:-30)

Amateur Radio Satellites - All Passes

Search period start: 24 July 2014 13:56
Search period end: 25 July 2014 13:56
Location: Twillingate Astronomical Observatory, 49.6173°N, 54.7580°W

Satellite Date Start Highest point End Downlink Frequencies (MHz)
Time Altitude Azimuth
JAS-1B 24 Jul 14:04:01 14:12:36 55° 62° (ENE) 14:22:05 435.800 - 435.900 CW/SSB
Gurwin Techsat 1B 24 Jul 14:06:55 14:11:39 34° 63° (ENE) 14:16:24 435.225 FM
AO-27 24 Jul 14:13:03 14:18:16 81° 73° (ENE) 14:23:32 436.795 MHz FM
AO-Echo 24 Jul 14:14:44 14:20:02 82° 74° (ENE) 14:25:24 ?
Uribyol 2 24 Jul 14:16:03 14:21:16 87° 74° (ENE) 14:26:31 436.500 FM
Uosat F 24 Jul 14:32:29 14:34:41 13° 51° (NE) 14:36:52 435.120 FM
AO-7 24 Jul 14:43:45 14:50:51 33° 50° (NE) 14:57:57 29.400 - 29.500 MHz
Oscar 19 24 Jul 14:58:34 15:02:40 24° 268° (W) 15:06:48 437.125 CW, 437.150 USB
RS-15 24 Jul 15:22:12 15:33:15 77° 124° (SE) 15:44:09 29.354 - 29.394 USB, Beacon 29.352 USB
Saudisat 1A 24 Jul 15:22:24 15:25:17 17° 21° (NNE) 15:28:09 436.775 MHz
KITSAT 1 24 Jul 15:24:08 15:32:05 55° 42° (NE) 15:39:58 435.175 FM
TMSAT-1 24 Jul 15:24:59 15:30:18 81° 256° (WSW) 15:35:39 436.925 FM
Oscar 16 24 Jul 15:28:03 15:30:34 14° 274° (W) 15:33:06 437.025 USB, Beacon 2401.1428
SO-50 24 Jul 15:33:53 15:38:18 54° 316° (NW) 15:42:50 436.795 FM
ITAMSAT 1 24 Jul 15:36:12 15:40:20 23° 268° (W) 15:44:29 435.822 SSB
Gurwin Techsat 1B 24 Jul 15:46:31 15:51:32 42° 262° (W) 15:56:35 435.225 FM
JAS-1B 24 Jul 15:54:46 16:03:11 49° 265° (W) 16:12:38 435.800 - 435.900 CW/SSB
AO-27 24 Jul 15:55:10 15:58:26 17° 272° (W) 16:01:43 436.795 MHz FM
AO-Echo 24 Jul 15:56:05 15:59:27 17° 273° (W) 16:02:52 ?
Uribyol 2 24 Jul 15:58:33 16:01:28 15° 273° (W) 16:04:24 436.500 FM
Uosat F 24 Jul 16:07:34 16:12:34 68° 71° (ENE) 16:17:37 435.120 FM
JAS-2 24 Jul 16:20:19 16:25:14 19° 49° (NE) 16:29:57 435.800 - 435.900 CW/SSB, 435.910 FM
UOSAT-12 24 Jul 16:22:42 16:27:10 51° 123° (ESE) 16:31:44 437.025 FM, 437.400 FM
AO-7 24 Jul 16:34:34 16:42:57 79° 252° (WSW) 16:51:23 29.400 - 29.500 MHz
OPAL 24 Jul 16:37:09 16:41:30 29° 97° (E) 16:45:53 ?
Saudisat 1A 24 Jul 17:01:30 17:05:51 52° 44° (NE) 17:10:09 436.775 MHz
Hamsat 24 Jul 17:02:29 17:05:25 19° 61° (ENE) 17:08:22 145.90 MHz
TMSAT-1 24 Jul 17:08:42 17:11:05 13° 275° (W) 17:13:29 436.925 FM
SO-50 24 Jul 17:16:46 17:19:52 18° 339° (NNW) 17:23:02 436.795 FM
KITSAT 1 24 Jul 17:19:48 17:27:29 49° 245° (WSW) 17:35:06 435.175 FM
RS-15 24 Jul 17:35:59 17:46:31 48° 332° (NNW) 17:57:03 29.354 - 29.394 USB, Beacon 29.352 USB
Uosat F 24 Jul 17:48:18 17:51:51 19° 270° (W) 17:55:26 435.120 FM
JAS-1B 24 Jul 17:53:49 17:56:26 11° 289° (WNW) 17:59:08 435.800 - 435.900 CW/SSB
JAS-2 24 Jul 18:01:23 18:09:06 65° 69° (ENE) 18:16:23 435.800 - 435.900 CW/SSB, 435.910 FM
UOSAT-12 24 Jul 18:03:16 18:07:32 34° 324° (NW) 18:11:51 437.025 FM, 437.400 FM
OPAL 24 Jul 18:15:47 18:20:34 46° 295° (WNW) 18:25:24 ?
AO-7 24 Jul 18:31:25 18:37:05 20° 273° (W) 18:42:48 29.400 - 29.500 MHz
Hamsat 24 Jul 18:36:57 18:41:02 54° 260° (W) 18:45:10 145.90 MHz
Saudisat 1A 24 Jul 18:41:32 18:45:12 26° 243° (WSW) 18:48:51 436.775 MHz
STRAND 1 24 Jul 18:52:33 18:56:04 18° 89° (E) 18:59:34 ?
HO-68 24 Jul 18:59:02 19:03:35 18° 45° (NE) 19:08:07 435.675 MHz FM
SO-50 24 Jul 19:00:06 19:02:16 13° 4° (N) 19:04:27 436.795 FM
SO-67 24 Jul 19:17:26 19:20:54 72° 75° (ENE) 19:24:23 435.3500 MHz FM
UOSAT-12 24 Jul 19:46:21 19:49:03 15° 347° (NNW) 19:51:46 437.025 FM, 437.400 FM
JAS-2 24 Jul 19:47:34 19:54:29 34° 268° (W) 20:01:08 435.800 - 435.900 CW/SSB, 435.910 FM
RS-15 24 Jul 19:52:05 20:02:00 37° 5° (N) 20:12:03 29.354 - 29.394 USB, Beacon 29.352 USB
Oscar 10/S400 24 Jul 19:54:01 20:07:21 20° 135° (SE) 20:28:39 145.825 - 145.975 CW/USB, Beacon 145.810 USB
UKube-1 24 Jul 20:30:04 20:33:44 27° 63° (ENE) 20:37:25 145.840 MHz, 145.915 MHz
STRAND 1 24 Jul 20:30:42 20:35:49 71° 288° (WNW) 20:40:53 ?
SO-50 24 Jul 20:40:46 20:44:30 23° 28° (NNE) 20:48:17 436.795 FM
HO-68 24 Jul 20:42:58 20:50:03 66° 66° (ENE) 20:57:09 435.675 MHz FM
Oscar 11 24 Jul 21:20:11 21:24:10 38° 68° (ENE) 21:28:11 145.825 FM, Beacon 2401.500 USB
UOSAT-12 24 Jul 21:28:27 21:31:07 15° 12° (NNE) 21:33:46 437.025 FM, 437.400 FM
FUNcube-1 24 Jul 21:29:02 21:32:15 21° 62° (ENE) 21:35:25 145.950 - 145.970 MHz USB
MaSat-1 24 Jul 21:57:20 21:59:52 16° 101° (E) 22:02:37 437.345 MHz
UKube-1 24 Jul 22:05:42 22:09:48 39° 262° (W) 22:13:56 145.840 MHz, 145.915 MHz
RS-15 24 Jul 22:06:11 22:17:01 59° 37° (NE) 22:28:08 29.354 - 29.394 USB, Beacon 29.352 USB
STRAND 1 24 Jul 22:11:42 22:14:08 14° 308° (NW) 22:16:34 ?
SO-50 24 Jul 22:21:00 22:25:45 83° 50° (NE) 22:30:33 436.795 FM
HO-68 24 Jul 22:32:06 22:38:15 30° 267° (W) 22:44:28 435.675 MHz FM
Oscar 11 24 Jul 22:56:54 23:00:29 25° 266° (W) 23:04:06 145.825 FM, Beacon 2401.500 USB
FUNcube-1 24 Jul 23:04:07 23:08:22 51° 260° (W) 23:12:33 145.950 - 145.970 MHz USB
UOSAT-12 24 Jul 23:08:23 23:12:41 32° 35° (NE) 23:16:56 437.025 FM, 437.400 FM
MaSat-1 24 Jul 23:32:19 23:36:28 72° 303° (WNW) 23:41:19 437.345 MHz
SO-50 25 Jul 00:02:41 00:05:45 17° 248° (WSW) 00:08:51 436.795 FM
RS-15 25 Jul 00:18:53 00:29:29 57° 243° (WSW) 00:40:26 29.354 - 29.394 USB, Beacon 29.352 USB
UOSAT-12 25 Jul 00:48:27 00:53:06 56° 236° (SW) 00:57:41 437.025 FM, 437.400 FM
Sapphire 25 Jul 00:58:13 00:59:58 12° 102° (ESE) 01:01:43 437.095 MHz 1200 baud AX-25 AFSK
Lituanica SAT-1 25 Jul 01:07:09 01:09:06 33° 152° (SSE) 01:11:04 437.275 MHz beacon
MaSat-1 25 Jul 01:11:48 01:14:50 17° 327° (NNW) 01:18:06 437.345 MHz
AO-40 25 Jul 01:24:30 05:56:49 28° 158° (SSE) 07:39:18 Beacon 2401.320
Oscar 19 25 Jul 01:26:42 01:29:16 14° 86° (E) 01:31:50 437.125 CW, 437.150 USB
PCSat 25 Jul 01:29:14 01:33:24 23° 109° (ESE) 01:37:35 145.825 MHz
JAS-1B 25 Jul 01:47:30 01:52:10 14° 74° (ENE) 01:56:36 435.800 - 435.900 CW/SSB
Oscar 16 25 Jul 01:53:06 01:57:16 24° 92° (E) 02:01:24 437.025 USB, Beacon 2401.1428
ITAMSAT 1 25 Jul 02:05:19 02:08:06 14° 87° (E) 02:10:52 435.822 SSB
ISS 25 Jul 02:07:10 02:10:08 30° 146° (SE) 02:13:07 145.800 FM
AO-Echo 25 Jul 02:18:45 02:22:30 20° 89° (E) 02:26:09 ?
OPAL 25 Jul 02:20:15 02:23:06 16° 51° (NE) 02:25:57 ?
AO-27 25 Jul 02:22:30 02:26:22 21° 91° (E) 02:30:12 436.795 MHz FM
Uribyol 2 25 Jul 02:25:05 02:29:06 22° 91° (E) 02:33:06 436.500 FM
RS-15 25 Jul 02:34:38 02:39:11 13° 267° (W) 02:43:49 29.354 - 29.394 USB, Beacon 29.352 USB
Sapphire 25 Jul 02:37:01 02:42:22 68° 121° (ESE) 02:47:46 437.095 MHz 1200 baud AX-25 AFSK
Lituanica SAT-1 25 Jul 02:39:38 02:41:43 51° 351° (N) 02:43:47 437.275 MHz beacon
Oscar 19 25 Jul 03:04:12 03:09:23 87° 105° (ESE) 03:14:34 437.125 CW, 437.150 USB
PCSat 25 Jul 03:10:56 03:16:20 70° 308° (NW) 03:21:47 145.825 MHz
Oscar 16 25 Jul 03:31:55 03:36:57 55° 291° (WNW) 03:41:59 437.025 USB, Beacon 2401.1428
JAS-1B 25 Jul 03:35:26 03:45:04 58° 98° (E) 03:53:32 435.800 - 435.900 CW/SSB
TMSAT-1 25 Jul 03:36:45 03:41:22 29° 94° (E) 03:45:56 436.925 FM
ITAMSAT 1 25 Jul 03:43:07 03:48:21 89° 286° (WNW) 03:53:32 435.822 SSB
ISS 25 Jul 03:43:17 03:46:38 79° 345° (NNW) 03:50:00 145.800 FM
OPAL 25 Jul 03:56:19 04:01:16 83° 71° (ENE) 04:06:15 ?
AO-Echo 25 Jul 03:56:37 04:01:47 66° 289° (WNW) 04:06:45 ?
Gurwin Techsat 1B 25 Jul 03:57:49 04:03:05 57° 101° (E) 04:08:18 435.225 FM
AO-27 25 Jul 04:01:11 04:06:21 64° 290° (WNW) 04:11:28 436.795 MHz FM
Uribyol 2 25 Jul 04:03:53 04:08:59 59° 290° (WNW) 04:14:02 436.500 FM
Uosat F 25 Jul 04:12:20 04:15:08 15° 88° (E) 04:17:55 435.120 FM
Lituanica SAT-1 25 Jul 04:12:26 04:14:31 54° 9° (N) 04:16:36 437.275 MHz beacon
Sapphire 25 Jul 04:21:31 04:26:15 30° 323° (NW) 04:31:02 437.095 MHz 1200 baud AX-25 AFSK
AO-7 25 Jul 04:31:48 04:38:41 28° 92° (E) 04:45:30 29.400 - 29.500 MHz
Oscar 19 25 Jul 04:44:47 04:48:05 18° 305° (NW) 04:51:24 437.125 CW, 437.150 USB
PCSat 25 Jul 04:56:41 05:00:45 21° 331° (NNW) 05:04:50 145.825 MHz
Oscar 16 25 Jul 05:14:03 05:15:15 11° 311° (NW) 05:16:27 437.025 USB, Beacon 2401.1428
TMSAT-1 25 Jul 05:16:25 05:21:29 47° 293° (WNW) 05:26:31 436.925 FM
ISS 25 Jul 05:20:11 05:23:31 60° 5° (N) 05:26:51 145.800 FM
ITAMSAT 1 25 Jul 05:23:54 05:27:09 17° 306° (NW) 05:30:24 435.822 SSB
JAS-1B 25 Jul 05:26:09 05:35:20 48° 301° (WNW) 05:43:38 435.800 - 435.900 CW/SSB
AO-Echo 25 Jul 05:37:23 05:39:34 13° 309° (NW) 05:41:44 ?
OPAL 25 Jul 05:38:01 05:40:49 15° 270° (W) 05:43:38 ?
Gurwin Techsat 1B 25 Jul 05:38:24 05:42:43 26° 300° (WNW) 05:47:02 435.225 FM
AO-27 25 Jul 05:42:45 05:44:55 13° 310° (NW) 05:47:04 436.795 MHz FM
Lituanica SAT-1 25 Jul 05:45:11 05:47:05 29° 209° (SSW) 05:48:59 437.275 MHz beacon
Uribyol 2 25 Jul 05:45:44 05:47:26 12° 311° (NW) 05:49:08 436.500 FM
Uosat F 25 Jul 05:49:33 05:54:37 85° 287° (WNW) 05:59:38 435.120 FM
KITSAT 1 25 Jul 06:01:17 06:05:46 16° 99° (E) 06:10:15 435.175 FM
Sapphire 25 Jul 06:08:49 06:11:30 14° 348° (NNW) 06:14:12 437.095 MHz 1200 baud AX-25 AFSK
MaSat-1 25 Jul 06:09:27 06:13:38 23° 39° (NE) 06:17:51 437.345 MHz
STRAND 1 25 Jul 06:12:19 06:17:07 41° 66° (ENE) 06:21:57 ?
Hamsat 25 Jul 06:18:49 06:22:00 20° 91° (E) 06:25:12 145.90 MHz
AO-7 25 Jul 06:23:59 06:32:21 80° 293° (WNW) 06:40:39 29.400 - 29.500 MHz
PCSat 25 Jul 06:44:08 06:46:21 12° 357° (N) 06:48:34 145.825 MHz
JAS-2 25 Jul 06:52:39 06:58:26 36° 93° (E) 07:03:36 435.800 - 435.900 CW/SSB, 435.910 FM
ISS 25 Jul 06:56:56 07:00:15 62° 205° (SSW) 07:03:34 145.800 FM
JAS-1B 25 Jul 07:17:45 07:23:25 18° 325° (NW) 07:28:53 435.800 - 435.900 CW/SSB
Uosat F 25 Jul 07:29:46 07:32:41 16° 306° (NW) 07:35:35 435.120 FM
MaSat-1 25 Jul 07:46:22 07:51:44 89° 238° (WSW) 07:56:58 437.345 MHz
KITSAT 1 25 Jul 07:51:41 07:59:40 67° 120° (ESE) 08:07:42 435.175 FM
STRAND 1 25 Jul 07:51:50 07:56:25 32° 265° (W) 08:01:02 ?
Hamsat 25 Jul 07:54:07 07:58:15 48° 289° (WNW) 08:02:23 145.90 MHz
Sapphire 25 Jul 07:54:31 07:57:21 14° 14° (NNE) 08:00:11 437.095 MHz 1200 baud AX-25 AFSK
SO-67 25 Jul 08:10:11 08:13:34 46° 99° (E) 08:16:56 435.3500 MHz FM
AO-7 25 Jul 08:17:38 08:24:01 25° 316° (NW) 08:30:22 29.400 - 29.500 MHz
PCSat 25 Jul 08:28:25 08:32:05 18° 24° (NNE) 08:35:43 145.825 MHz
ISS 25 Jul 08:34:34 08:36:26 14° 223° (SW) 08:38:18 145.800 FM
JAS-2 25 Jul 08:37:38 08:43:43 45° 296° (WNW) 08:49:07 435.800 - 435.900 CW/SSB, 435.910 FM
Saudisat 1A 25 Jul 08:51:45 08:55:31 28° 117° (ESE) 08:59:18 436.775 MHz
MaSat-1 25 Jul 09:25:08 09:28:23 17° 259° (W) 09:31:36 437.345 MHz
Oscar 10/S400 25 Jul 09:31:11 09:41:36 10° 263° (W) 09:53:00 145.825 - 145.975 CW/USB, Beacon 145.810 USB
Sapphire 25 Jul 09:37:38 09:42:31 33° 39° (NE) 09:47:23 437.095 MHz 1200 baud AX-25 AFSK
SO-67 25 Jul 09:44:12 09:46:19 15° 297° (WNW) 09:48:26 435.3500 MHz FM
KITSAT 1 25 Jul 09:47:54 09:55:35 44° 324° (NW) 10:03:16 435.175 FM
UKube-1 25 Jul 09:49:45 09:53:24 25° 94° (E) 09:57:00 145.840 MHz, 145.915 MHz
HO-68 25 Jul 09:53:27 10:00:16 45° 98° (E) 10:07:01 435.675 MHz FM
PCSat 25 Jul 10:11:26 10:16:46 52° 47° (NE) 10:22:03 145.825 MHz
JAS-2 25 Jul 10:25:27 10:27:03 11° 320° (NW) 10:28:36 435.800 - 435.900 CW/SSB, 435.910 FM
Saudisat 1A 25 Jul 10:30:37 10:34:55 49° 317° (NW) 10:39:15 436.775 MHz
Oscar 11 25 Jul 10:39:16 10:43:24 42° 98° (E) 10:47:31 145.825 FM, Beacon 2401.500 USB
FUNcube-1 25 Jul 10:49:22 10:52:35 21° 92° (E) 10:55:48 145.950 - 145.970 MHz USB
Sapphire 25 Jul 11:20:57 11:26:18 60° 241° (WSW) 11:31:37 437.095 MHz 1200 baud AX-25 AFSK
UKube-1 25 Jul 11:25:39 11:29:45 40° 293° (WNW) 11:33:48 145.840 MHz, 145.915 MHz
Oscar 16 25 Jul 11:40:09 11:40:53 10° 49° (NE) 11:41:37 437.025 USB, Beacon 2401.1428
HO-68 25 Jul 11:41:17 11:48:02 46° 299° (WNW) 11:54:44 435.675 MHz FM
KITSAT 1 25 Jul 11:46:48 11:53:17 25° 352° (N) 11:59:46 435.175 FM
PCSat 25 Jul 11:55:13 12:00:00 32° 248° (WSW) 12:04:45 145.825 MHz
Saudisat 1A 25 Jul 12:12:42 12:15:31 16° 339° (NNW) 12:18:20 436.775 MHz
Uribyol 2 25 Jul 12:12:49 12:13:37 10° 48° (NE) 12:14:25 436.500 FM
Oscar 11 25 Jul 12:15:54 12:19:24 25° 297° (WNW) 12:22:54 145.825 FM, Beacon 2401.500 USB
FUNcube-1 25 Jul 12:25:16 12:29:13 43° 291° (WNW) 12:33:10 145.950 - 145.970 MHz USB
JAS-1B 25 Jul 12:35:58 12:42:49 24° 43° (NE) 12:49:58 435.800 - 435.900 CW/SSB
RS-15 25 Jul 12:41:34 12:47:25 16° 96° (E) 12:53:11 29.354 - 29.394 USB, Beacon 29.352 USB
Oscar 19 25 Jul 12:47:10 12:51:38 31° 63° (ENE) 12:56:07 437.125 CW, 437.150 USB
Oscar 16 25 Jul 13:14:11 13:19:09 53° 69° (ENE) 13:24:08 437.025 USB, Beacon 2401.1428
TMSAT-1 25 Jul 13:25:28 13:27:58 14° 51° (NE) 13:30:27 436.925 FM
ITAMSAT 1 25 Jul 13:26:52 13:31:33 35° 64° (ENE) 13:36:15 435.822 SSB
HO-68 25 Jul 13:30:57 13:34:04 13° 322° (NW) 13:37:10 435.675 MHz FM
AO-Echo 25 Jul 13:35:12 13:40:08 41° 66° (ENE) 13:45:06 ?
AO-27 25 Jul 13:44:34 13:49:35 48° 67° (ENE) 13:54:36 436.795 MHz FM
Gurwin Techsat 1B 25 Jul 13:45:04 13:49:14 24° 59° (ENE) 13:53:24 435.225 FM
